Location: Clanezzo
(45.7500°N, 9.6000°E)
Time: 06:10:03
(UTC+00:00)

Gbstr 26 Del rocket - Pass Details

Date: 04 October 2021
Orbit: 492 x 1263 km, 51.8° (Epoch: 20 October)

Event Time Altitude Azimuth Distance (km) Brightness Sun altitude
Rises 20:32:34 0° 283° (WNW) 3,976 8.0 -36.6°
Reaches altitude 10° 20:35:18 10° 288° (WNW) 3,094 7.3 -37.0°
Enters shadow 20:42:23 56° 350° (N) 1,461 4.9 -37.9°
